Location: Krakow
(50.0830°N, 19.9170°E)
Time: 05:57:36
(UTC+01:00)

Vanguard 2 - Pass Details

Date: 16 December 2023
Orbit: 553 x 2919 km, 32.9° (Epoch: 24 February)

Event Time Altitude Azimuth Distance (km) Brightness Sun altitude
Rises 17:04:02 0° 221° (SW) 5,682 13.2 -12.8°
Reaches altitude 10° 17:07:57 10° 212° (SSW) 4,971 12.5 -13.4°
Maximum altitude 17:20:43 34° 156° (SSE) 3,975 11.0 -15.3°
Enters shadow 17:34:10 12° 103° (ESE) 5,503 11.3 -17.4°
